2015-049G (40905 NORAD) Tracking and Keplerian Element Data

This shows tracking and keplerian element data for the satellite.

Feedback or suggestion? Click here.




ElementValue
Catalog40905
Name2015-049G
Epoch Orbit17487
Epoch Day323.20850873
Epoch Year2018
RAAN321.7792
Inclination97.4648
Eccentricity0.001445
Argument of Perigee210.5253
Mean Anonmoly210.7132
Mean Motion15.14110054
Decay Rate3.11E-06
L11 40905U 15049G 18323.20850873 .00000311 00000-0 20662-4 0 9992
L22 40905 97.4648 321.7792 0014450 210.5253 210.7132 15.14110054174876

Live tracking and technical data element details for 2015-049G (NORAD 40905). 2015-049G can be tracked NOW for your location showing map with azimuth and elevation plus other details from your city location.

Track the satellite on the map from your city or location and see movement details for azimuth, elevation, latitude, longitude, range, height, and movement on the map or in text.







IsCatalogInMostPopularTable: catalog: 40905, numindb: 131
Update: records affected: 1



GetName: 40905 2015-049G

Hit Count: updated at: Mon, 19 Nov 2018 11:33:09 GMT